Terminal Aerodrome Forecast
Issued by NWS

Home | Current Version | Previous Version | Text Only | Print | Product List | Glossary On
Versions: 1 2 3 4 5 6 7 8 9 10 11 12 13 14 15 16
000
FTUS44 KLUB 240500
TAFCDS
TAF
KCDS 240520Z 2406/2506 17016KT P6SM FEW150
     FM241200 35022KT P6SM SKC
     FM242300 02006KT P6SM SCT250=

USA.gov is the U.S. government's official web portal to all federal, state and local government web resources and services.